AFL2117 URSS-UWKD

Flight info

Callsign AFL2117
Flight time 2h 17m
Altitude 35000
Route ADNET1S ADNET W79 NZ B145 ER G128 MOR R720 DAFOS T789 BMK T173 AGUTO T789 SONUM SONUM1T
Aircraft A320/M-SDE3FGHIRWY/LB1

Departure

Time 2026-05-07 16:23
Airport Sochi International Airport (URSS)

Arrival

Time 2026-05-07 18:40
Airport Kazan International Airport (UWKD)
Time Latitude Longitude Altitude Speed Heading
2026-05-07 15:03 43.44775 39.94246 75 ft 0 kts 335°
2026-05-07 16:13 43.44774 39.94247 74 ft 2 kts 335°
2026-05-07 16:13 43.44758 39.94257 64 ft 2 kts 335°
2026-05-07 16:13 43.44743 39.94267 71 ft 2 kts 335°
2026-05-07 16:14 43.44727 39.94277 69 ft 2 kts 335°
2026-05-07 16:14 43.44712 39.94287 67 ft 2 kts 335°
2026-05-07 16:14 43.44700 39.94294 71 ft 2 kts 335°
2026-05-07 16:14 43.44681 39.94307 69 ft 2 kts 347°
2026-05-07 16:15 43.44664 39.94304 66 ft 2 kts 58°
2026-05-07 16:15 43.44658 39.94284 67 ft 2 kts 81°
2026-05-07 16:15 43.44658 39.94282 67 ft 0 kts 81°
2026-05-07 16:18 43.44666 39.94319 68 ft 9 kts 69°
2026-05-07 16:19 43.44698 39.94420 64 ft 13 kts 65°
2026-05-07 16:19 43.44740 39.94541 72 ft 11 kts 64°
2026-05-07 16:19 43.44772 39.94636 72 ft 8 kts 65°
2026-05-07 16:19 43.44801 39.94720 66 ft 11 kts 65°
2026-05-07 16:20 43.44837 39.94826 70 ft 13 kts 65°
2026-05-07 16:20 43.44868 39.94917 70 ft 6 kts 65°
2026-05-07 16:20 43.44874 39.94956 76 ft 2 kts 99°
2026-05-07 16:20 43.44867 39.94968 72 ft 5 kts 133°
2026-05-07 16:21 43.44839 39.94994 76 ft 4 kts 151°
2026-05-07 16:21 43.44819 39.95008 78 ft 3 kts 153°
2026-05-07 16:21 43.44799 39.95008 73 ft 3 kts 193°
2026-05-07 16:21 43.44772 39.94981 77 ft 7 kts 228°
2026-05-07 16:22 43.44766 39.94966 65 ft 0 kts 243°
2026-05-07 16:22 43.44764 39.94961 66 ft 0 kts 243°
2026-05-07 16:22 43.44749 39.94922 70 ft 21 kts 243°
2026-05-07 16:22 43.44555 39.94359 74 ft 103 kts 245°
2026-05-07 16:23 43.44161 39.93193 102 ft 161 kts 245°
2026-05-07 16:23 43.43672 39.91751 711 ft 169 kts 247°
2026-05-07 16:23 43.43275 39.90199 1466 ft 175 kts 257°
2026-05-07 16:23 43.43120 39.88447 1817 ft 195 kts 269°
2026-05-07 16:24 43.43209 39.86506 2132 ft 216 kts 279°
2026-05-07 16:24 43.43683 39.84397 2487 ft 241 kts 295°
2026-05-07 16:24 43.44604 39.82358 2999 ft 260 kts 308°
2026-05-07 16:24 43.45740 39.80382 3879 ft 263 kts 309°
2026-05-07 16:25 43.46846 39.78459 4847 ft 264 kts 309°
2026-05-07 16:25 43.48004 39.76424 5717 ft 268 kts 309°
2026-05-07 16:25 43.49161 39.74377 6535 ft 272 kts 309°
2026-05-07 16:25 43.50331 39.72297 7333 ft 277 kts 309°
2026-05-07 16:26 43.51521 39.70180 8104 ft 281 kts 309°
2026-05-07 16:26 43.52714 39.68055 8904 ft 285 kts 309°
2026-05-07 16:26 43.53939 39.65875 9713 ft 289 kts 309°
2026-05-07 16:26 43.54763 39.64408 10241 ft 293 kts 309°
2026-05-07 16:27 43.56517 39.61283 10583 ft 324 kts 309°
2026-05-07 16:27 43.57931 39.58760 10797 ft 346 kts 309°
2026-05-07 16:27 43.59434 39.56081 11340 ft 354 kts 310°
2026-05-07 16:27 43.61197 39.53704 12009 ft 357 kts 325°
2026-05-07 16:28 43.63376 39.52072 12710 ft 358 kts 341°
2026-05-07 16:28 43.65807 39.51334 13424 ft 359 kts 357°
2026-05-07 16:28 43.68296 39.51547 14125 ft 360 kts 13°
2026-05-07 16:28 43.70698 39.52555 14760 ft 362 kts 19°
2026-05-07 16:29 43.73107 39.53687 15091 ft 365 kts 19°
2026-05-07 16:29 43.75491 39.54808 15187 ft 364 kts 19°
2026-05-07 16:29 43.77893 39.55939 15194 ft 364 kts 19°
2026-05-07 16:29 43.79498 39.56696 15194 ft 364 kts 20°
2026-05-07 16:30 43.82677 39.58194 15195 ft 364 kts 19°
2026-05-07 16:30 43.84287 39.58951 15191 ft 364 kts 19°
2026-05-07 16:30 43.86688 39.60080 15190 ft 364 kts 19°
2026-05-07 16:30 43.89101 39.61219 15551 ft 368 kts 19°
2026-05-07 16:31 43.91598 39.62010 16188 ft 372 kts
2026-05-07 16:31 43.94207 39.62159 16791 ft 376 kts
2026-05-07 16:31 43.96807 39.62267 17407 ft 379 kts
2026-05-07 16:31 43.99446 39.62368 17992 ft 382 kts
2026-05-07 16:32 44.02120 39.62468 18548 ft 386 kts
2026-05-07 16:32 44.04815 39.62571 19057 ft 389 kts
2026-05-07 16:32 44.07527 39.62671 19569 ft 391 kts
2026-05-07 16:32 44.10251 39.62776 20079 ft 393 kts
2026-05-07 16:33 44.12996 39.62884 20562 ft 396 kts
2026-05-07 16:33 44.15774 39.62995 21059 ft 399 kts
2026-05-07 16:33 44.18587 39.63110 21568 ft 401 kts
2026-05-07 16:33 44.21322 39.63220 22032 ft 403 kts
2026-05-07 16:34 44.24146 39.63334 22533 ft 405 kts
2026-05-07 16:34 44.26971 39.63448 23005 ft 407 kts
2026-05-07 16:34 44.29814 39.63561 23490 ft 410 kts
2026-05-07 16:34 44.32683 39.63676 23889 ft 413 kts
2026-05-07 16:35 44.35557 39.63791 24241 ft 415 kts
2026-05-07 16:35 44.38464 39.63909 24620 ft 418 kts
2026-05-07 16:35 44.41374 39.64029 25015 ft 419 kts
2026-05-07 16:35 44.44282 39.64145 25388 ft 421 kts
2026-05-07 16:36 44.47245 39.64262 25768 ft 423 kts
2026-05-07 16:36 44.50189 39.64379 26140 ft 425 kts
2026-05-07 16:36 44.53158 39.64497 26511 ft 426 kts
2026-05-07 16:36 44.56133 39.64617 26869 ft 428 kts
2026-05-07 16:37 44.59112 39.64738 27222 ft 430 kts
2026-05-07 16:37 44.62079 39.64859 27553 ft 432 kts
2026-05-07 16:37 44.65089 39.64983 27877 ft 434 kts
2026-05-07 16:37 44.68108 39.65105 28203 ft 435 kts
2026-05-07 16:38 44.71142 39.65228 28522 ft 437 kts
2026-05-07 16:38 44.74204 39.65354 28822 ft 439 kts
2026-05-07 16:38 44.77258 39.65479 29135 ft 441 kts
2026-05-07 16:38 44.80323 39.65605 29449 ft 442 kts
2026-05-07 16:39 44.83409 39.65731 29826 ft 442 kts
2026-05-07 16:39 44.86471 39.65854 30265 ft 440 kts
2026-05-07 16:39 44.89502 39.65978 30613 ft 439 kts
2026-05-07 16:39 44.92552 39.66105 30952 ft 438 kts
2026-05-07 16:40 44.95590 39.66230 31300 ft 437 kts
2026-05-07 16:40 44.98634 39.66356 31622 ft 437 kts
2026-05-07 16:40 45.01680 39.66483 31968 ft 436 kts
2026-05-07 16:40 45.04705 39.66608 32325 ft 435 kts
2026-05-07 16:41 45.07731 39.66733 32668 ft 434 kts
2026-05-07 16:41 45.10728 39.67135 33014 ft 429 kts 16°
2026-05-07 16:41 45.13517 39.68535 33337 ft 424 kts 26°
2026-05-07 16:41 45.16204 39.70278 33665 ft 424 kts 26°
2026-05-07 16:42 45.18875 39.72026 34009 ft 423 kts 27°
2026-05-07 16:42 45.21548 39.73783 34307 ft 422 kts 27°
2026-05-07 16:42 45.24189 39.75524 34551 ft 423 kts 26°
2026-05-07 16:42 45.26887 39.77302 34787 ft 424 kts 26°
2026-05-07 16:43 45.29538 39.79050 34995 ft 425 kts 26°
2026-05-07 16:43 45.32261 39.80842 35183 ft 427 kts 26°
2026-05-07 16:43 45.34925 39.82592 35376 ft 428 kts 26°
2026-05-07 16:43 45.37626 39.84368 35584 ft 429 kts 26°
2026-05-07 16:44 45.40337 39.86152 35804 ft 430 kts 26°
2026-05-07 16:44 45.43058 39.87942 35992 ft 431 kts 26°
2026-05-07 16:44 45.45789 39.89744 36124 ft 433 kts 26°
2026-05-07 16:45 45.51268 39.93366 36143 ft 434 kts 25°
2026-05-07 16:45 45.56749 39.97001 36154 ft 435 kts 26°
2026-05-07 16:46 45.62247 40.00657 36149 ft 435 kts 25°
2026-05-07 16:46 45.67743 40.04309 36141 ft 435 kts 25°
2026-05-07 16:47 45.73213 40.07953 36146 ft 435 kts 25°
2026-05-07 16:47 45.78696 40.11628 36137 ft 436 kts 26°
2026-05-07 16:48 45.84195 40.15319 36135 ft 436 kts 25°
2026-05-07 16:48 45.89701 40.19020 36142 ft 437 kts 25°
2026-05-07 16:49 45.95179 40.22706 36142 ft 437 kts 25°
2026-05-07 16:49 46.00697 40.26427 36141 ft 437 kts 25°
2026-05-07 16:50 46.06204 40.30139 36140 ft 437 kts 25°
2026-05-07 16:50 46.11706 40.33866 36145 ft 437 kts 26°
2026-05-07 16:51 46.17215 40.37618 36147 ft 437 kts 26°
2026-05-07 16:51 46.22721 40.41368 36145 ft 437 kts 26°
2026-05-07 16:52 46.28217 40.45115 36140 ft 437 kts 25°
2026-05-07 16:52 46.33729 40.48877 36140 ft 437 kts 25°
2026-05-07 16:53 46.39214 40.52634 36132 ft 437 kts 25°
2026-05-07 16:53 46.44683 40.56382 36130 ft 437 kts 25°
2026-05-07 16:54 46.50172 40.60159 36132 ft 437 kts 25°
2026-05-07 16:54 46.55655 40.63947 36130 ft 437 kts 25°
2026-05-07 16:55 46.61316 40.67186 36117 ft 437 kts 17°
2026-05-07 16:55 46.67127 40.69768 36119 ft 437 kts 17°
2026-05-07 16:56 46.72929 40.72358 36112 ft 437 kts 18°
2026-05-07 16:56 46.81615 40.76244 36111 ft 436 kts 17°
2026-05-07 16:57 46.87453 40.78855 36105 ft 436 kts 17°
2026-05-07 16:57 46.93229 40.81461 36105 ft 436 kts 17°
2026-05-07 16:58 46.99022 40.84090 36096 ft 436 kts 17°
2026-05-07 16:58 47.04831 40.86728 36101 ft 436 kts 17°
2026-05-07 16:59 47.10631 40.89366 36096 ft 437 kts 17°
2026-05-07 16:59 47.16433 40.92016 36092 ft 437 kts 17°
2026-05-07 17:00 47.22212 40.94653 36094 ft 436 kts 17°
2026-05-07 17:00 47.28003 40.97299 36079 ft 437 kts 17°
2026-05-07 17:01 47.33847 40.99983 36077 ft 437 kts 17°
2026-05-07 17:01 47.39626 41.02636 36078 ft 437 kts 17°
2026-05-07 17:02 47.45412 41.05301 36069 ft 437 kts 18°
2026-05-07 17:02 47.51236 41.07993 36066 ft 437 kts 18°
2026-05-07 17:03 47.57041 41.10703 36064 ft 437 kts 19°
2026-05-07 17:03 47.62450 41.14757 36060 ft 436 kts 31°
2026-05-07 17:04 47.67602 41.19349 36040 ft 436 kts 30°
2026-05-07 17:04 47.72826 41.23990 36042 ft 436 kts 30°
2026-05-07 17:05 47.78024 41.28624 36042 ft 436 kts 30°
2026-05-07 17:05 47.83231 41.33283 36043 ft 436 kts 30°
2026-05-07 17:06 47.88397 41.37961 36033 ft 437 kts 30°
2026-05-07 17:06 47.93589 41.42706 36025 ft 437 kts 30°
2026-05-07 17:07 47.98783 41.47451 36028 ft 438 kts 30°
2026-05-07 17:07 48.03844 41.52062 36024 ft 438 kts 30°
2026-05-07 17:08 48.09054 41.56837 36020 ft 438 kts 31°
2026-05-07 17:08 48.14254 41.61625 36026 ft 438 kts 31°
2026-05-07 17:09 48.19418 41.66380 36026 ft 439 kts 31°
2026-05-07 17:09 48.24609 41.71170 36028 ft 439 kts 31°
2026-05-07 17:10 48.29806 41.75978 36028 ft 439 kts 31°
2026-05-07 17:10 48.34934 41.80939 36026 ft 439 kts 37°
2026-05-07 17:11 48.39689 41.86688 36015 ft 439 kts 38°
2026-05-07 17:11 48.44452 41.92456 36018 ft 439 kts 38°
2026-05-07 17:12 48.49213 41.98226 36011 ft 439 kts 38°
2026-05-07 17:12 48.53966 42.03997 36005 ft 439 kts 38°
2026-05-07 17:13 48.58723 42.09775 36005 ft 439 kts 38°
2026-05-07 17:13 48.63462 42.15555 36004 ft 440 kts 38°
2026-05-07 17:14 48.68217 42.21385 36002 ft 440 kts 38°
2026-05-07 17:14 48.72977 42.27237 36002 ft 440 kts 38°
2026-05-07 17:15 48.77741 42.33092 36000 ft 440 kts 38°
2026-05-07 17:15 48.81686 42.37953 36006 ft 440 kts 38°
2026-05-07 17:16 48.86431 42.43816 36007 ft 440 kts 38°
2026-05-07 17:16 48.91957 42.50670 35991 ft 441 kts 38°
2026-05-07 17:17 48.95944 42.55624 35973 ft 443 kts 38°
2026-05-07 17:17 49.00715 42.61568 35977 ft 445 kts 38°
2026-05-07 17:18 49.05499 42.67541 35985 ft 446 kts 38°
2026-05-07 17:18 49.10269 42.73521 35991 ft 446 kts 38°
2026-05-07 17:19 49.15057 42.79522 35970 ft 447 kts 38°
2026-05-07 17:19 49.19880 42.85579 35966 ft 449 kts 38°
2026-05-07 17:20 49.22192 42.88494 35738 ft 449 kts 39°
2026-05-07 17:20 49.23144 42.89693 35398 ft 448 kts 37°
2026-05-07 17:20 49.25539 42.92643 34859 ft 446 kts 38°
2026-05-07 17:20 49.27924 42.95652 34990 ft 447 kts 39°
2026-05-07 17:21 49.32729 43.01803 34985 ft 451 kts 39°
2026-05-07 17:21 49.37560 43.07989 34983 ft 452 kts 39°
2026-05-07 17:22 49.42380 43.14150 34989 ft 452 kts 39°
2026-05-07 17:22 49.47222 43.20309 34988 ft 452 kts 39°
2026-05-07 17:23 49.52058 43.26484 34979 ft 452 kts 39°
2026-05-07 17:23 49.56882 43.32688 34984 ft 452 kts 39°
2026-05-07 17:24 49.61669 43.38852 34981 ft 452 kts 39°
2026-05-07 17:24 49.66518 43.45125 34982 ft 452 kts 39°
2026-05-07 17:25 49.71320 43.51335 34980 ft 452 kts 39°
2026-05-07 17:25 49.76038 43.57449 34983 ft 452 kts 39°
2026-05-07 17:26 49.80720 43.63534 34978 ft 452 kts 39°
2026-05-07 17:26 49.85539 43.69808 34977 ft 452 kts 39°
2026-05-07 17:27 49.90345 43.76082 34977 ft 452 kts 39°
2026-05-07 17:27 49.95164 43.82421 34975 ft 452 kts 39°
2026-05-07 17:28 49.99979 43.88753 34972 ft 452 kts 39°
2026-05-07 17:28 50.05004 43.95393 34974 ft 452 kts 39°
2026-05-07 17:29 50.09774 44.01715 34972 ft 452 kts 40°
2026-05-07 17:29 50.14567 44.08080 34971 ft 453 kts 40°
2026-05-07 17:30 50.19334 44.14428 34975 ft 452 kts 40°
2026-05-07 17:30 50.23147 44.19501 34969 ft 453 kts 40°
2026-05-07 17:31 50.27912 44.25848 34970 ft 453 kts 40°
2026-05-07 17:31 50.32717 44.32276 34970 ft 453 kts 40°
2026-05-07 17:32 50.37507 44.38719 34968 ft 453 kts 40°
2026-05-07 17:32 50.42288 44.45174 34967 ft 453 kts 40°
2026-05-07 17:33 50.47047 44.51597 34969 ft 454 kts 40°
2026-05-07 17:33 50.51816 44.58056 34969 ft 454 kts 40°
2026-05-07 17:34 50.56606 44.64575 34965 ft 453 kts 40°
2026-05-07 17:34 50.61373 44.71088 34964 ft 453 kts 40°
2026-05-07 17:35 50.66142 44.77609 34964 ft 453 kts 40°
2026-05-07 17:35 50.70903 44.84123 34965 ft 453 kts 40°
2026-05-07 17:36 50.75669 44.90670 34963 ft 454 kts 40°
2026-05-07 17:36 50.80414 44.97200 34964 ft 454 kts 40°
2026-05-07 17:37 50.85177 45.03791 34963 ft 454 kts 40°
2026-05-07 17:37 50.89925 45.10369 34965 ft 454 kts 40°
2026-05-07 17:38 50.94680 45.16966 34963 ft 454 kts 40°
2026-05-07 17:38 50.99389 45.23527 34958 ft 454 kts 40°
2026-05-07 17:39 51.04136 45.30167 34959 ft 455 kts 41°
2026-05-07 17:39 51.08515 45.36346 34956 ft 454 kts 41°
2026-05-07 17:40 51.13236 45.43006 34954 ft 455 kts 41°
2026-05-07 17:40 51.17980 45.49708 34954 ft 455 kts 41°
2026-05-07 17:41 51.22712 45.56413 34949 ft 455 kts 41°
2026-05-07 17:41 51.27444 45.63156 34951 ft 455 kts 41°
2026-05-07 17:42 51.32178 45.69913 34949 ft 456 kts 41°
2026-05-07 17:42 51.36870 45.76620 34949 ft 456 kts 41°
2026-05-07 17:43 51.41612 45.83416 34945 ft 456 kts 41°
2026-05-07 17:43 51.46331 45.90213 34939 ft 456 kts 41°
2026-05-07 17:44 51.51059 45.97038 34947 ft 457 kts 41°
2026-05-07 17:44 51.55829 46.03765 34946 ft 456 kts 35°
2026-05-07 17:45 51.61361 46.08767 34943 ft 456 kts 26°
2026-05-07 17:45 51.67003 46.13405 34944 ft 456 kts 26°
2026-05-07 17:46 51.72641 46.18072 34948 ft 451 kts 26°
2026-05-07 17:46 51.78106 46.22602 34948 ft 455 kts 27°
2026-05-07 17:47 51.83912 46.27425 34947 ft 456 kts 27°
2026-05-07 17:47 51.89537 46.32108 34946 ft 456 kts 27°
2026-05-07 17:48 51.95153 46.36792 34939 ft 456 kts 26°
2026-05-07 17:48 52.00771 46.41500 34943 ft 457 kts 27°
2026-05-07 17:49 52.06439 46.46269 34945 ft 457 kts 27°
2026-05-07 17:49 52.12071 46.51004 34943 ft 457 kts 27°
2026-05-07 17:50 52.17705 46.55757 34949 ft 457 kts 27°
2026-05-07 17:50 52.23347 46.60533 34949 ft 457 kts 27°
2026-05-07 17:51 52.28997 46.65345 34951 ft 457 kts 27°
2026-05-07 17:51 52.34639 46.70148 34951 ft 457 kts 27°
2026-05-07 17:52 52.40287 46.74967 34951 ft 457 kts 27°
2026-05-07 17:52 52.45888 46.79766 34950 ft 457 kts 27°
2026-05-07 17:53 52.51512 46.84603 34955 ft 458 kts 27°
2026-05-07 17:53 52.57175 46.89483 34956 ft 458 kts 27°
2026-05-07 17:54 52.62811 46.94368 34957 ft 458 kts 27°
2026-05-07 17:54 52.68419 46.99227 34959 ft 458 kts 27°
2026-05-07 17:55 52.74068 47.04137 34961 ft 459 kts 27°
2026-05-07 17:55 52.79707 47.09054 34962 ft 460 kts 27°
2026-05-07 17:56 52.85363 47.14000 34962 ft 460 kts 27°
2026-05-07 17:56 52.91011 47.18954 34964 ft 460 kts 27°
2026-05-07 17:57 52.95706 47.23088 34966 ft 459 kts 27°
2026-05-07 17:57 53.02328 47.28926 34963 ft 459 kts 27°
2026-05-07 17:58 53.07931 47.33883 34967 ft 459 kts 27°
2026-05-07 17:58 53.13562 47.38895 34970 ft 459 kts 27°
2026-05-07 17:59 53.19202 47.43930 34970 ft 459 kts 27°
2026-05-07 17:59 53.24834 47.48955 34969 ft 459 kts 27°
2026-05-07 18:00 53.29554 47.53169 34973 ft 459 kts 27°
2026-05-07 18:00 53.35175 47.58213 34979 ft 459 kts 28°
2026-05-07 18:01 53.40796 47.63291 34973 ft 459 kts 28°
2026-05-07 18:01 53.46400 47.68365 34974 ft 459 kts 28°
2026-05-07 18:02 53.55217 47.74561 34975 ft 459 kts 21°
2026-05-07 18:03 53.61172 47.78474 34980 ft 456 kts 21°
2026-05-07 18:03 53.67076 47.82381 34981 ft 456 kts 21°
2026-05-07 18:04 53.73118 47.85648 34979 ft 455 kts 13°
2026-05-07 18:04 53.79266 47.88149 34983 ft 456 kts 13°
2026-05-07 18:05 53.85259 47.91421 34984 ft 456 kts 23°
2026-05-07 18:05 53.91048 47.95779 34983 ft 456 kts 24°
2026-05-07 18:06 53.96865 48.00172 34983 ft 456 kts 24°
2026-05-07 18:06 54.02639 48.04541 34982 ft 455 kts 23°
2026-05-07 18:07 54.08434 48.08930 34983 ft 454 kts 23°
2026-05-07 18:07 54.14205 48.13303 34976 ft 454 kts 23°
2026-05-07 18:08 54.19967 48.17691 34973 ft 450 kts 24°
2026-05-07 18:08 54.25595 48.22001 34977 ft 440 kts 24°
2026-05-07 18:09 54.30975 48.27027 34975 ft 440 kts 28°
2026-05-07 18:09 54.36313 48.32144 34975 ft 439 kts 28°
2026-05-07 18:10 54.41648 48.37261 34975 ft 439 kts 28°
2026-05-07 18:10 54.46976 48.42401 34900 ft 440 kts 28°
2026-05-07 18:10 54.49666 48.45002 34037 ft 446 kts 28°
2026-05-07 18:11 54.52388 48.47635 33090 ft 450 kts 29°
2026-05-07 18:11 54.54201 48.49394 32483 ft 452 kts 29°
2026-05-07 18:11 54.57866 48.52952 31234 ft 457 kts 28°
2026-05-07 18:11 54.60647 48.55652 30281 ft 460 kts 28°
2026-05-07 18:12 54.63415 48.58349 29298 ft 463 kts 28°
2026-05-07 18:12 54.66206 48.61077 28407 ft 461 kts 29°
2026-05-07 18:12 54.69000 48.63812 27532 ft 460 kts 29°
2026-05-07 18:12 54.71777 48.66534 26701 ft 458 kts 29°
2026-05-07 18:13 54.74580 48.69282 25943 ft 455 kts 29°
2026-05-07 18:13 54.77301 48.71954 25225 ft 451 kts 29°
2026-05-07 18:13 54.80050 48.74660 24522 ft 448 kts 29°
2026-05-07 18:13 54.82055 48.76633 24016 ft 445 kts 29°
2026-05-07 18:14 54.83926 48.78475 23537 ft 443 kts 29°
2026-05-07 18:14 54.85605 48.80384 22866 ft 436 kts 36°
2026-05-07 18:14 54.87051 48.82129 22337 ft 441 kts 32°
2026-05-07 18:14 54.89132 48.84403 22459 ft 437 kts 30°
2026-05-07 18:15 54.91890 48.87042 22030 ft 436 kts 27°
2026-05-07 18:15 54.94493 48.89368 21964 ft 435 kts 26°
2026-05-07 18:15 54.97182 48.91774 21982 ft 436 kts 27°
2026-05-07 18:15 54.99871 48.94268 21984 ft 437 kts 27°
2026-05-07 18:16 55.02522 48.96830 21978 ft 438 kts 28°
2026-05-07 18:16 55.05157 48.99455 21980 ft 438 kts 29°
2026-05-07 18:16 55.07796 49.02133 21980 ft 438 kts 29°
2026-05-07 18:16 55.10429 49.04819 21980 ft 438 kts 29°
2026-05-07 18:17 55.13065 49.07498 21980 ft 438 kts 29°
2026-05-07 18:17 55.15728 49.10094 21975 ft 438 kts 24°
2026-05-07 18:17 55.18607 49.11760 21976 ft 436 kts
2026-05-07 18:17 55.21612 49.11916 21822 ft 431 kts 353°
2026-05-07 18:18 55.24482 49.10584 21182 ft 424 kts 335°
2026-05-07 18:18 55.26942 49.07801 20547 ft 419 kts 317°
2026-05-07 18:18 55.29007 49.04233 19897 ft 415 kts 314°
2026-05-07 18:18 55.30998 49.00656 19286 ft 412 kts 314°
2026-05-07 18:19 55.32989 48.97075 18713 ft 407 kts 314°
2026-05-07 18:19 55.35149 48.93887 18111 ft 404 kts 323°
2026-05-07 18:19 55.37419 48.91020 17440 ft 401 kts 324°
2026-05-07 18:19 55.39675 48.88192 16820 ft 397 kts 324°
2026-05-07 18:20 55.41930 48.85422 16210 ft 394 kts 327°
2026-05-07 18:20 55.44349 48.83531 15970 ft 383 kts 343°
2026-05-07 18:20 55.46978 48.82899 15833 ft 372 kts 359°
2026-05-07 18:20 55.49496 48.83573 15709 ft 362 kts 15°
2026-05-07 18:21 55.51798 48.85233 15578 ft 351 kts 21°
2026-05-07 18:21 55.53915 48.86891 15457 ft 340 kts 22°
2026-05-07 18:21 55.56060 48.88578 15112 ft 337 kts 22°
2026-05-07 18:21 55.58197 48.90258 14747 ft 335 kts 21°
2026-05-07 18:22 55.60321 48.91928 14389 ft 332 kts 22°
2026-05-07 18:22 55.61712 48.93022 14149 ft 329 kts 22°
2026-05-07 18:22 55.64434 48.95169 13664 ft 311 kts 21°
2026-05-07 18:22 55.66359 48.96687 13455 ft 294 kts 21°
2026-05-07 18:23 55.68149 48.98100 13180 ft 282 kts 21°
2026-05-07 18:23 55.69908 48.99484 12774 ft 274 kts 21°
2026-05-07 18:23 55.71634 49.00769 12390 ft 265 kts 13°
2026-05-07 18:23 55.73410 49.01035 12007 ft 254 kts 349°
2026-05-07 18:24 55.74950 49.00122 11650 ft 246 kts 328°
2026-05-07 18:24 55.76214 48.98176 11277 ft 239 kts 307°
2026-05-07 18:24 55.76947 48.95515 10901 ft 236 kts 284°
2026-05-07 18:24 55.77066 48.92808 10557 ft 235 kts 265°
2026-05-07 18:25 55.76592 48.90036 10198 ft 235 kts 243°
2026-05-07 18:25 55.75563 48.87788 9830 ft 236 kts 220°
2026-05-07 18:25 55.74124 48.86383 9440 ft 237 kts 201°
2026-05-07 18:25 55.72624 48.85536 9063 ft 235 kts 198°
2026-05-07 18:26 55.71050 48.84772 8670 ft 234 kts 195°
2026-05-07 18:26 55.69480 48.84045 8290 ft 232 kts 195°
2026-05-07 18:26 55.67915 48.83320 7915 ft 231 kts 195°
2026-05-07 18:26 55.66369 48.82597 7537 ft 229 kts 195°
2026-05-07 18:27 55.64795 48.82300 7172 ft 231 kts 175°
2026-05-07 18:27 55.63249 48.83030 6965 ft 227 kts 152°
2026-05-07 18:27 55.62006 48.84628 6967 ft 219 kts 131°
2026-05-07 18:27 55.61404 48.86042 6971 ft 218 kts 117°
2026-05-07 18:28 55.60836 48.89406 6785 ft 212 kts 89°
2026-05-07 18:28 55.61019 48.91957 6556 ft 209 kts 69°
2026-05-07 18:28 55.61667 48.94224 6326 ft 205 kts 50°
2026-05-07 18:28 55.62681 48.95946 6094 ft 202 kts 31°
2026-05-07 18:29 55.63940 48.97003 5987 ft 201 kts 17°
2026-05-07 18:29 55.65273 48.97726 5972 ft 201 kts 14°
2026-05-07 18:29 55.66626 48.98369 5974 ft 201 kts 13°
2026-05-07 18:29 55.67957 48.98985 5974 ft 201 kts 13°
2026-05-07 18:30 55.69332 48.99627 5977 ft 201 kts 15°
2026-05-07 18:30 55.70495 49.00949 5963 ft 204 kts 55°
2026-05-07 18:30 55.71100 49.03204 5985 ft 207 kts 60°
2026-05-07 18:30 55.72061 49.04995 5977 ft 201 kts 23°
2026-05-07 18:31 55.73407 49.05364 5980 ft 197 kts 346°
2026-05-07 18:31 55.74579 49.04182 5977 ft 198 kts 310°
2026-05-07 18:31 55.75280 49.02078 5979 ft 201 kts 296°
2026-05-07 18:31 55.75845 48.99790 5977 ft 202 kts 294°
2026-05-07 18:32 55.76386 48.97493 5967 ft 202 kts 294°
2026-05-07 18:32 55.76933 48.95203 5977 ft 201 kts 294°
2026-05-07 18:32 55.77491 48.92946 5900 ft 199 kts 294°
2026-05-07 18:32 55.78038 48.90688 5668 ft 199 kts 288°
2026-05-07 18:33 55.78142 48.88263 5450 ft 200 kts 258°
2026-05-07 18:33 55.77522 48.86096 5223 ft 203 kts 226°
2026-05-07 18:33 55.76314 48.84831 4980 ft 205 kts 193°
2026-05-07 18:33 55.74914 48.84923 4751 ft 207 kts 160°
2026-05-07 18:34 55.73745 48.86379 4526 ft 207 kts 126°
2026-05-07 18:34 55.73171 48.88691 4292 ft 206 kts 106°
2026-05-07 18:34 55.72784 48.91048 4101 ft 205 kts 105°
2026-05-07 18:34 55.72388 48.93436 3905 ft 203 kts 105°
2026-05-07 18:35 55.72000 48.95760 3703 ft 202 kts 106°
2026-05-07 18:35 55.71600 48.98145 3497 ft 201 kts 106°
2026-05-07 18:35 55.71122 49.00460 3293 ft 199 kts 119°
2026-05-07 18:35 55.70390 49.02526 3112 ft 197 kts 124°
2026-05-07 18:36 55.69623 49.04533 3005 ft 199 kts 124°
2026-05-07 18:36 55.68850 49.06544 2786 ft 199 kts 124°
2026-05-07 18:36 55.68074 49.08564 2551 ft 196 kts 125°
2026-05-07 18:36 55.67315 49.10538 2286 ft 189 kts 124°
2026-05-07 18:37 55.66602 49.12393 2031 ft 176 kts 124°
2026-05-07 18:37 55.65939 49.14115 1816 ft 163 kts 124°
2026-05-07 18:37 55.65323 49.15713 1620 ft 149 kts 124°
2026-05-07 18:37 55.64765 49.17162 1407 ft 139 kts 124°
2026-05-07 18:38 55.64265 49.18488 1227 ft 136 kts 123°
2026-05-07 18:38 55.63736 49.19863 1074 ft 135 kts 125°
2026-05-07 18:38 55.63194 49.21223 924 ft 135 kts 124°
2026-05-07 18:38 55.62704 49.22508 748 ft 135 kts 124°
2026-05-07 18:39 55.62171 49.23869 627 ft 135 kts 124°
2026-05-07 18:39 55.61992 49.24332 545 ft 136 kts 123°
2026-05-07 18:40 55.60630 49.27866 410 ft 38 kts 124°
2026-05-07 18:40 55.60447 49.28340 406 ft 36 kts 124°
2026-05-07 18:40 55.60396 49.28562 407 ft 12 kts 67°
2026-05-07 18:41 55.60471 49.28671 407 ft 12 kts 35°
2026-05-07 18:41 55.60481 49.28683 407 ft 0 kts 34°
2026-05-07 18:42 55.60498 49.28704 407 ft 10 kts 35°
2026-05-07 18:43 55.60509 49.28832 405 ft 13 kts 125°
2026-05-07 18:43 55.60446 49.28992 407 ft 21 kts 124°
2026-05-07 18:43 55.60354 49.29230 403 ft 25 kts 124°
2026-05-07 18:43 55.60259 49.29474 407 ft 21 kts 124°
2026-05-07 18:44 55.60178 49.29681 404 ft 20 kts 124°
2026-05-07 18:44 55.60115 49.29849 407 ft 11 kts 116°
2026-05-07 18:44 55.60146 49.29969 407 ft 14 kts 14°
2026-05-07 18:44 55.60244 49.29902 407 ft 17 kts 336°
2026-05-07 18:45 55.60362 49.29895 407 ft 14 kts 20°
2026-05-07 18:45 55.60456 49.30002 407 ft 18 kts 35°
2026-05-07 18:45 55.60528 49.30088 407 ft 11 kts 29°
2026-05-07 18:45 55.60598 49.30039 407 ft 12 kts 316°
2026-05-07 18:46 55.60647 49.30040 407 ft 8 kts 36°
2026-05-07 18:46 55.60674 49.30077 407 ft 0 kts 35°